User: anonymous   Login
Location: ActonStarParty
(42.4766°N, 71.4538°W)
Time: 11:12:05
(UTC-04:00)
Language:

ITAMSAT 1 - Orbit

View from above orbital plane
View from above orbital plane
View from above satellite
View from above satellite

Ground track
Ground track

The orbit data is extracted from the following two-line orbital elements,

1 22826U 93061D   15107.45419838  .00000231  00000-0  10652-3 0  9998
2 22826 098.6975 057.7419 0009970 115.2284 244.9933 14.30177960124400
Epoch (UTC): 17 April 2015 10:54:02
Eccentricity: 0.0009970
inclination: 98.6975°
perigee height: 784 km
apogee height: 798 km
right ascension of ascending node: 57.7419°
argument of perigee: 115.2284°
revolutions per day: 14.30177960
mean anomaly at epoch: 244.9933°
orbit number at epoch: 12440

The dashed part of the orbit path shows where the satellite is in the earth's shadow,  

DLR